Year,Month,Day,Hour,Minute,Value (Times are PST for temperature in C)
2013,03,21,10,17,3.90
2013,03,21,10,18,4.00
2013,03,21,10,19,4.00
2013,03,21,10,20,4.10
2013,03,21,10,21,4.20
2013,03,21,10,22,4.20
2013,03,21,10,23,4.30
2013,03,21,10,24,4.50
2013,03,21,10,25,4.50
2013,03,21,10,26,4.60
2013,03,21,10,27,4.60
2013,03,21,10,28,4.60
2013,03,21,10,29,4.60
2013,03,21,10,30,4.70
2013,03,21,10,31,4.80
2013,03,21,10,32,4.80
2013,03,21,10,33,4.80
2013,03,21,10,34,4.70
2013,03,21,10,35,4.70
2013,03,21,10,36,4.70
2013,03,21,10,37,4.80
2013,03,21,10,38,4.80
2013,03,21,10,39,4.90
2013,03,21,10,40,4.90
2013,03,21,10,41,4.90
2013,03,21,10,42,4.90
2013,03,21,10,43,5.00
2013,03,21,10,44,5.00
2013,03,21,10,45,4.90
2013,03,21,10,46,4.90
2013,03,21,10,47,4.90
2013,03,21,10,48,4.90
2013,03,21,10,49,5.00
2013,03,21,10,50,5.10
2013,03,21,10,51,5.10
2013,03,21,10,52,5.10
2013,03,21,10,53,5.10
2013,03,21,10,54,5.10
2013,03,21,10,55,5.10
2013,03,21,10,56,4.90
2013,03,21,10,57,4.90
2013,03,21,10,58,4.90
2013,03,21,10,59,4.90
2013,03,21,11,00,4.80
2013,03,21,11,01,4.80
2013,03,21,11,02,4.80
2013,03,21,11,03,4.70
2013,03,21,11,04,4.70
2013,03,21,11,05,4.70
2013,03,21,11,06,4.60
2013,03,21,11,07,4.50
2013,03,21,11,08,4.50
2013,03,21,11,09,4.50
2013,03,21,11,10,4.40
2013,03,21,11,11,4.40
2013,03,21,11,12,4.40
2013,03,21,11,13,4.50
2013,03,21,11,14,4.50
2013,03,21,11,15,4.50
2013,03,21,11,16,4.50
2013,03,21,11,17,4.50
2013,03,21,11,18,4.50
2013,03,21,11,19,4.50
2013,03,21,11,20,4.60
2013,03,21,11,21,4.60
2013,03,21,11,22,4.60
2013,03,21,11,23,4.60
2013,03,21,11,24,4.60
2013,03,21,11,25,4.60
2013,03,21,11,26,4.70
2013,03,21,11,27,4.70
2013,03,21,11,28,4.70
2013,03,21,11,29,4.70
2013,03,21,11,30,4.70
2013,03,21,11,31,4.70
2013,03,21,11,32,4.80
2013,03,21,11,33,4.80
2013,03,21,11,34,4.80
2013,03,21,11,35,4.80
2013,03,21,11,36,4.90
2013,03,21,11,37,4.90
2013,03,21,11,38,4.80
2013,03,21,11,39,4.90
2013,03,21,11,40,4.80
2013,03,21,11,41,4.80
2013,03,21,11,42,4.90
2013,03,21,11,43,4.90
2013,03,21,11,44,4.90
2013,03,21,11,45,4.90
2013,03,21,11,46,4.90
2013,03,21,11,47,4.90
2013,03,21,11,48,4.90
2013,03,21,11,49,4.80
2013,03,21,11,50,4.80
2013,03,21,11,51,4.70
2013,03,21,11,52,4.80
2013,03,21,11,53,4.80
2013,03,21,11,54,4.80
2013,03,21,11,55,4.80
2013,03,21,11,56,4.80
2013,03,21,11,57,4.90
2013,03,21,11,58,4.90
2013,03,21,11,59,4.90
2013,03,21,12,00,4.90
2013,03,21,12,01,4.90
2013,03,21,12,02,4.90
2013,03,21,12,03,4.90
2013,03,21,12,04,4.90
2013,03,21,12,05,4.90
2013,03,21,12,06,4.80
2013,03,21,12,07,4.80
2013,03,21,12,08,4.90
2013,03,21,12,09,4.90
2013,03,21,12,10,4.90
2013,03,21,12,11,4.90
2013,03,21,12,12,5.00
2013,03,21,12,13,5.10
2013,03,21,12,14,5.10
2013,03,21,12,15,5.10
2013,03,21,12,16,5.10
2013,03,21,12,17,5.10
2013,03,21,12,18,5.10
2013,03,21,12,19,5.10
2013,03,21,12,20,5.20
2013,03,21,12,21,5.20
2013,03,21,12,22,5.20
2013,03,21,12,23,5.20
2013,03,21,12,24,5.30
2013,03,21,12,25,5.30
2013,03,21,12,26,5.30
2013,03,21,12,27,5.40
2013,03,21,12,28,5.50
2013,03,21,12,29,5.60
2013,03,21,12,30,5.60
2013,03,21,12,31,5.60
2013,03,21,12,32,5.70
2013,03,21,12,33,5.70
2013,03,21,12,34,5.70
2013,03,21,12,35,5.70
2013,03,21,12,36,5.70
2013,03,21,12,37,5.80
2013,03,21,12,38,5.90
2013,03,21,12,39,5.90
2013,03,21,12,40,5.90
2013,03,21,12,41,5.90
2013,03,21,12,42,5.90
2013,03,21,12,43,5.90
2013,03,21,12,44,5.90
2013,03,21,12,45,6.00
2013,03,21,12,46,6.00
2013,03,21,12,47,6.00
2013,03,21,12,48,6.00
2013,03,21,12,49,6.00
2013,03,21,12,50,6.10
2013,03,21,12,51,6.00
2013,03,21,12,52,6.00
2013,03,21,12,53,6.00
2013,03,21,12,54,6.00
2013,03,21,12,55,6.00
2013,03,21,12,56,5.90
2013,03,21,12,57,5.90
2013,03,21,12,58,5.90
2013,03,21,12,59,5.80
2013,03,21,13,00,5.80
2013,03,21,13,01,5.70
2013,03,21,13,02,5.70
2013,03,21,13,03,5.70
2013,03,21,13,04,5.60
2013,03,21,13,05,5.50
2013,03,21,13,06,5.50
2013,03,21,13,07,5.50
2013,03,21,13,08,5.50
2013,03,21,13,09,5.40
2013,03,21,13,10,5.40
2013,03,21,13,11,5.30
2013,03,21,13,12,5.30
2013,03,21,13,13,5.30
2013,03,21,13,14,5.30
2013,03,21,13,15,5.30
2013,03,21,13,16,5.30
2013,03,21,13,17,5.30
2013,03,21,13,18,5.30
2013,03,21,13,19,5.30
2013,03,21,13,20,5.30
2013,03,21,13,21,5.30
2013,03,21,13,22,5.30
2013,03,21,13,23,5.30
2013,03,21,13,24,5.30
2013,03,21,13,25,5.30
2013,03,21,13,26,5.30
2013,03,21,13,27,5.30
2013,03,21,13,28,5.30
2013,03,21,13,29,5.30
2013,03,21,13,30,5.30
2013,03,21,13,31,5.20
2013,03,21,13,32,5.20
2013,03,21,13,33,5.20
2013,03,21,13,34,5.20
2013,03,21,13,35,5.30
2013,03,21,13,36,5.30
2013,03,21,13,37,5.30
2013,03,21,13,38,5.30
2013,03,21,13,39,5.40
2013,03,21,13,40,5.50
2013,03,21,13,41,5.50
2013,03,21,13,42,5.50
2013,03,21,13,43,5.50
2013,03,21,13,44,5.40
2013,03,21,13,45,5.40
2013,03,21,13,46,5.40
2013,03,21,13,47,5.50
2013,03,21,13,48,5.60
2013,03,21,13,49,5.60
2013,03,21,13,50,5.70
2013,03,21,13,51,5.70
2013,03,21,13,52,5.80
2013,03,21,13,53,5.80
2013,03,21,13,54,5.80
2013,03,21,13,55,5.90
2013,03,21,13,56,6.00
2013,03,21,13,57,6.00
2013,03,21,13,58,6.10
2013,03,21,13,59,6.20
2013,03,21,14,00,6.20
2013,03,21,14,01,6.30
2013,03,21,14,02,6.40
2013,03,21,14,03,6.30
2013,03,21,14,04,6.30
2013,03,21,14,05,6.30
2013,03,21,14,06,6.30
2013,03,21,14,07,6.30
2013,03,21,14,08,6.20
2013,03,21,14,09,6.10
2013,03,21,14,10,6.00
2013,03,21,14,11,6.00
2013,03,21,14,12,6.00
2013,03,21,14,13,5.90
2013,03,21,14,14,5.90
2013,03,21,14,15,5.90
2013,03,21,14,16,5.90
2013,03,21,14,17,5.90
2013,03,21,14,18,6.00
2013,03,21,14,19,6.00
2013,03,21,14,20,6.00
2013,03,21,14,21,6.00
2013,03,21,14,22,5.90
2013,03,21,14,23,5.90
2013,03,21,14,24,5.80
2013,03,21,14,25,5.80
2013,03,21,14,26,5.70
2013,03,21,14,27,5.70
2013,03,21,14,28,5.70
2013,03,21,14,29,5.70
2013,03,21,14,30,5.70
2013,03,21,14,31,5.70
2013,03,21,14,32,5.70
2013,03,21,14,33,5.80
2013,03,21,14,34,5.80
2013,03,21,14,35,5.80
2013,03,21,14,36,5.80
2013,03,21,14,37,5.90
2013,03,21,14,38,6.00
2013,03,21,14,39,6.00
2013,03,21,14,40,6.10
2013,03,21,14,41,6.20
2013,03,21,14,42,6.20
2013,03,21,14,43,6.20
2013,03,21,14,44,6.30
2013,03,21,14,45,6.30
2013,03,21,14,46,6.40
2013,03,21,14,47,6.40
2013,03,21,14,48,6.40
2013,03,21,14,49,6.50
2013,03,21,14,50,6.60
2013,03,21,14,51,6.60
2013,03,21,14,52,6.60
2013,03,21,14,53,6.60
2013,03,21,14,54,6.60
2013,03,21,14,55,6.60
2013,03,21,14,56,6.60
2013,03,21,14,57,6.70
2013,03,21,14,58,6.70
2013,03,21,14,59,6.80
2013,03,21,15,00,6.80
2013,03,21,15,01,6.70
2013,03,21,15,02,6.70
2013,03,21,15,03,6.70
2013,03,21,15,04,6.70
2013,03,21,15,05,6.70
2013,03,21,15,06,6.60
2013,03,21,15,07,6.70
2013,03,21,15,08,6.60
2013,03,21,15,09,6.60
2013,03,21,15,10,6.60
2013,03,21,15,11,6.60
2013,03,21,15,12,6.50
2013,03,21,15,13,6.40
2013,03,21,15,14,6.30
2013,03,21,15,15,6.30
2013,03,21,15,16,6.20
2013,03,21,15,17,6.30
2013,03,21,15,18,6.30
2013,03,21,15,19,6.40
2013,03,21,15,20,6.40
2013,03,21,15,21,6.40
2013,03,21,15,22,6.50
2013,03,21,15,23,6.60
2013,03,21,15,24,6.60
2013,03,21,15,25,6.60
2013,03,21,15,26,6.60
2013,03,21,15,27,6.60
2013,03,21,15,28,6.60
2013,03,21,15,29,6.60
2013,03,21,15,30,6.60
2013,03,21,15,31,6.50
2013,03,21,15,32,6.40
2013,03,21,15,33,6.50
2013,03,21,15,34,6.60
2013,03,21,15,35,6.60
2013,03,21,15,36,6.50
2013,03,21,15,37,6.40
2013,03,21,15,38,6.40
2013,03,21,15,39,6.30
2013,03,21,15,40,6.30
2013,03,21,15,41,6.20
2013,03,21,15,42,6.30
2013,03,21,15,43,6.30
2013,03,21,15,44,6.30
2013,03,21,15,45,6.30
2013,03,21,15,46,6.30
2013,03,21,15,47,6.30
2013,03,21,15,48,6.20
2013,03,21,15,49,6.20
2013,03,21,15,50,6.20
2013,03,21,15,51,6.20
2013,03,21,15,52,6.20
2013,03,21,15,53,6.20
2013,03,21,15,54,6.20
2013,03,21,15,55,6.20
2013,03,21,15,56,6.20
2013,03,21,15,57,6.20
2013,03,21,15,58,6.20
2013,03,21,15,59,6.30
2013,03,21,16,00,6.30
2013,03,21,16,01,6.40
2013,03,21,16,02,6.40
2013,03,21,16,03,6.40
2013,03,21,16,04,6.50
2013,03,21,16,05,6.60
2013,03,21,16,06,6.60
2013,03,21,16,07,6.50
2013,03,21,16,08,6.40
2013,03,21,16,09,6.40
2013,03,21,16,10,6.30
2013,03,21,16,11,6.30
2013,03,21,16,12,6.20
2013,03,21,16,13,6.20
2013,03,21,16,14,6.20
2013,03,21,16,15,6.20
2013,03,21,16,16,6.20
2013,03,21,16,17,6.20
2013,03,21,16,18,6.20
2013,03,21,16,19,6.20
2013,03,21,16,20,6.20
2013,03,21,16,21,6.30
2013,03,21,16,22,6.30
2013,03,21,16,23,6.40
2013,03,21,16,24,6.40
2013,03,21,16,25,6.40
2013,03,21,16,26,6.40
2013,03,21,16,27,6.40
2013,03,21,16,28,6.40
2013,03,21,16,29,6.30
2013,03,21,16,30,6.30
2013,03,21,16,31,6.20
2013,03,21,16,32,6.20
2013,03,21,16,33,6.20
2013,03,21,16,34,6.20
2013,03,21,16,35,6.20
2013,03,21,16,36,6.20
2013,03,21,16,37,6.20
2013,03,21,16,38,6.20
2013,03,21,16,39,6.10
2013,03,21,16,40,6.10
2013,03,21,16,41,6.00
2013,03,21,16,42,6.00
2013,03,21,16,43,6.00
2013,03,21,16,44,6.00
2013,03,21,16,45,6.00
2013,03,21,16,46,6.10
2013,03,21,16,47,6.10
2013,03,21,16,48,6.20
2013,03,21,16,49,6.30
2013,03,21,16,50,6.30
2013,03,21,16,51,6.30
2013,03,21,16,52,6.30
2013,03,21,16,53,6.30
2013,03,21,16,54,6.30
2013,03,21,16,55,6.30
2013,03,21,16,56,6.20
2013,03,21,16,57,6.20
2013,03,21,16,58,6.20
2013,03,21,16,59,6.20
2013,03,21,17,00,6.20
2013,03,21,17,01,6.10
2013,03,21,17,02,6.10
2013,03,21,17,03,6.10
2013,03,21,17,04,6.00
2013,03,21,17,05,6.00
2013,03,21,17,06,6.00
2013,03,21,17,07,6.00
2013,03,21,17,08,6.00
2013,03,21,17,09,5.90
2013,03,21,17,10,5.90
2013,03,21,17,11,5.80
2013,03,21,17,12,5.80
2013,03,21,17,13,5.80
2013,03,21,17,14,5.70
2013,03,21,17,15,5.70
2013,03,21,17,16,5.70
2013,03,21,17,17,5.70
2013,03,21,17,18,5.60
2013,03,21,17,19,5.50
2013,03,21,17,20,5.50
2013,03,21,17,21,5.40
2013,03,21,17,22,5.40
2013,03,21,17,23,5.40
2013,03,21,17,24,5.40
2013,03,21,17,25,5.40
2013,03,21,17,26,5.30
2013,03,21,17,27,5.30
2013,03,21,17,28,5.30
2013,03,21,17,29,5.30
2013,03,21,17,30,5.30
2013,03,21,17,31,5.40
2013,03,21,17,32,5.40
2013,03,21,17,33,5.50
2013,03,21,17,34,5.50
2013,03,21,17,35,5.50
2013,03,21,17,36,5.60
2013,03,21,17,37,5.60
2013,03,21,17,38,5.70
2013,03,21,17,39,5.70
2013,03,21,17,40,5.80
2013,03,21,17,41,5.90
2013,03,21,17,42,5.90
2013,03,21,17,43,5.90
2013,03,21,17,44,5.80
2013,03,21,17,45,5.80
2013,03,21,17,46,5.80
2013,03,21,17,47,5.80
2013,03,21,17,48,5.80
2013,03,21,17,49,5.80
2013,03,21,17,50,5.90
2013,03,21,17,51,5.90
2013,03,21,17,52,5.80
2013,03,21,17,53,5.80
2013,03,21,17,54,5.80
2013,03,21,17,55,5.90
2013,03,21,17,56,6.00
2013,03,21,17,57,6.00
2013,03,21,17,58,6.10
2013,03,21,17,59,6.10
2013,03,21,18,00,6.10
2013,03,21,18,01,6.00
2013,03,21,18,02,5.90
2013,03,21,18,03,5.80
2013,03,21,18,04,5.80
2013,03,21,18,05,5.80
2013,03,21,18,06,5.80
2013,03,21,18,07,5.80
2013,03,21,18,08,5.70
2013,03,21,18,09,5.70
2013,03,21,18,10,5.70
2013,03,21,18,11,5.70
2013,03,21,18,12,5.70
2013,03,21,18,13,5.70
2013,03,21,18,14,5.70
2013,03,21,18,15,5.70
2013,03,21,18,16,5.70
2013,03,21,18,17,5.70
2013,03,21,18,18,5.70
2013,03,21,18,19,5.70
2013,03,21,18,20,5.70
2013,03,21,18,21,5.70
2013,03,21,18,22,5.70
2013,03,21,18,23,5.70
2013,03,21,18,24,5.60
2013,03,21,18,25,5.60
2013,03,21,18,26,5.60
2013,03,21,18,27,5.70
2013,03,21,18,28,5.60
2013,03,21,18,29,5.60
2013,03,21,18,30,5.60
2013,03,21,18,31,5.60
2013,03,21,18,32,5.60
2013,03,21,18,33,5.60
2013,03,21,18,34,5.50
2013,03,21,18,35,5.50
2013,03,21,18,36,5.40
2013,03,21,18,37,5.40
2013,03,21,18,38,5.40
2013,03,21,18,39,5.30
2013,03,21,18,40,5.30
2013,03,21,18,41,5.30
2013,03,21,18,42,5.30
2013,03,21,18,43,5.30
2013,03,21,18,44,5.30
2013,03,21,18,45,5.30
2013,03,21,18,46,5.40
2013,03,21,18,47,5.30
2013,03,21,18,48,5.30
2013,03,21,18,49,5.30
2013,03,21,18,50,5.30
2013,03,21,18,51,5.30
2013,03,21,18,52,5.30
2013,03,21,18,53,5.30
2013,03,21,18,54,5.20
2013,03,21,18,55,5.20
2013,03,21,18,56,5.20
2013,03,21,18,57,5.10
2013,03,21,18,58,5.10
2013,03,21,18,59,5.10
2013,03,21,19,00,5.10
2013,03,21,19,01,5.10
2013,03,21,19,02,5.10
2013,03,21,19,03,5.10
2013,03,21,19,04,5.00
2013,03,21,19,05,4.90
2013,03,21,19,06,4.90
2013,03,21,19,07,4.80
2013,03,21,19,08,4.80
2013,03,21,19,09,4.70
2013,03,21,19,10,4.70
2013,03,21,19,11,4.70
2013,03,21,19,12,4.60
2013,03,21,19,13,4.60
2013,03,21,19,14,4.60
2013,03,21,19,15,4.60
2013,03,21,19,16,4.60
2013,03,21,19,17,4.60
2013,03,21,19,18,4.60
2013,03,21,19,19,4.60
2013,03,21,19,20,4.60
2013,03,21,19,21,4.60
2013,03,21,19,22,4.60
2013,03,21,19,23,4.60
2013,03,21,19,24,4.60
2013,03,21,19,25,4.60
2013,03,21,19,26,4.50
2013,03,21,19,27,4.50
2013,03,21,19,28,4.50
2013,03,21,19,29,4.50
2013,03,21,19,30,4.50
2013,03,21,19,31,4.50
2013,03,21,19,32,4.50
2013,03,21,19,33,4.50
2013,03,21,19,34,4.50
2013,03,21,19,35,4.50
2013,03,21,19,36,4.50
2013,03,21,19,37,4.50
2013,03,21,19,38,4.50
2013,03,21,19,39,4.50
2013,03,21,19,40,4.50
2013,03,21,19,41,4.50
2013,03,21,19,42,4.50
2013,03,21,19,43,4.50
2013,03,21,19,44,4.50
2013,03,21,19,45,4.40
2013,03,21,19,46,4.40
2013,03,21,19,47,4.40
2013,03,21,19,48,4.40
2013,03,21,19,49,4.40
2013,03,21,19,50,4.40
2013,03,21,19,51,4.40
2013,03,21,19,52,4.40
2013,03,21,19,53,4.40
2013,03,21,19,54,4.40
2013,03,21,19,55,4.40
2013,03,21,19,56,4.40
2013,03,21,19,57,4.40
2013,03,21,19,58,4.30
2013,03,21,19,59,4.30
2013,03,21,20,00,4.30
2013,03,21,20,01,4.20
2013,03,21,20,02,4.20
2013,03,21,20,03,4.20
2013,03,21,20,04,4.20
2013,03,21,20,05,4.20
2013,03,21,20,06,4.20
2013,03,21,20,07,4.10
2013,03,21,20,08,4.10
2013,03,21,20,09,4.00
2013,03,21,20,10,4.00
2013,03,21,20,11,4.00
2013,03,21,20,12,3.90
2013,03,21,20,13,3.90
2013,03,21,20,14,3.90
2013,03,21,20,15,3.90
2013,03,21,20,16,3.90
2013,03,21,20,17,3.90
2013,03,21,20,18,3.80
2013,03,21,20,19,3.80
2013,03,21,20,20,3.80
2013,03,21,20,21,3.80
2013,03,21,20,22,3.80
2013,03,21,20,23,3.80
2013,03,21,20,24,3.80
2013,03,21,20,25,3.80
2013,03,21,20,26,3.80
2013,03,21,20,27,3.80
2013,03,21,20,28,3.80
2013,03,21,20,29,3.80
2013,03,21,20,30,3.80
2013,03,21,20,31,3.70
2013,03,21,20,32,3.70
2013,03,21,20,33,3.70
2013,03,21,20,34,3.70
2013,03,21,20,35,3.60
2013,03,21,20,36,3.60
2013,03,21,20,37,3.60
2013,03,21,20,38,3.60
2013,03,21,20,39,3.60
2013,03,21,20,40,3.60
2013,03,21,20,41,3.60
2013,03,21,20,42,3.60
2013,03,21,20,43,3.60
2013,03,21,20,44,3.60
2013,03,21,20,45,3.60
2013,03,21,20,46,3.60
2013,03,21,20,47,3.60
2013,03,21,20,48,3.60
2013,03,21,20,49,3.60
2013,03,21,20,50,3.60
2013,03,21,20,51,3.60
2013,03,21,20,52,3.60
2013,03,21,20,53,3.60
2013,03,21,20,54,3.70
2013,03,21,20,55,3.70
2013,03,21,20,56,3.70
2013,03,21,20,57,3.70
2013,03,21,20,58,3.70
2013,03,21,20,59,3.70
2013,03,21,21,00,3.70
2013,03,21,21,01,3.80
2013,03,21,21,02,3.80
2013,03,21,21,03,3.80
2013,03,21,21,04,3.80
2013,03,21,21,05,3.80
2013,03,21,21,06,3.80
2013,03,21,21,07,3.80
2013,03,21,21,08,3.80
2013,03,21,21,09,3.80
2013,03,21,21,10,3.80
2013,03,21,21,11,3.80
2013,03,21,21,12,3.80
2013,03,21,21,13,3.80
2013,03,21,21,14,3.80
2013,03,21,21,15,3.80
2013,03,21,21,16,3.80
2013,03,21,21,17,3.80
2013,03,21,21,18,3.80
2013,03,21,21,19,3.80
2013,03,21,21,20,3.80
2013,03,21,21,21,3.80
2013,03,21,21,22,3.80
2013,03,21,21,23,3.80
2013,03,21,21,24,3.80
2013,03,21,21,25,3.80
2013,03,21,21,26,3.80
2013,03,21,21,27,3.80
2013,03,21,21,28,3.80
2013,03,21,21,29,3.80
2013,03,21,21,30,3.80
2013,03,21,21,31,3.80
2013,03,21,21,32,3.80
2013,03,21,21,33,3.80
2013,03,21,21,34,3.80
2013,03,21,21,35,3.70
2013,03,21,21,36,3.70
2013,03,21,21,37,3.70
2013,03,21,21,38,3.70
2013,03,21,21,39,3.70
2013,03,21,21,40,3.70
2013,03,21,21,41,3.70
2013,03,21,21,42,3.70
2013,03,21,21,43,3.70
2013,03,21,21,44,3.70
2013,03,21,21,45,3.70
2013,03,21,21,46,3.60
2013,03,21,21,47,3.60
2013,03,21,21,48,3.60
2013,03,21,21,49,3.60
2013,03,21,21,50,3.60
2013,03,21,21,51,3.60
2013,03,21,21,52,3.60
2013,03,21,21,53,3.60
2013,03,21,21,54,3.60
2013,03,21,21,55,3.60
2013,03,21,21,56,3.60
2013,03,21,21,57,3.60
2013,03,21,21,58,3.60
2013,03,21,21,59,3.60
2013,03,21,22,00,3.60
2013,03,21,22,01,3.60
2013,03,21,22,02,3.60
2013,03,21,22,03,3.60
2013,03,21,22,04,3.60
2013,03,21,22,05,3.60
2013,03,21,22,06,3.60
2013,03,21,22,07,3.60
2013,03,21,22,08,3.60
2013,03,21,22,09,3.60
2013,03,21,22,10,3.60
2013,03,21,22,11,3.60
2013,03,21,22,12,3.60
2013,03,21,22,13,3.70
2013,03,21,22,14,3.70
2013,03,21,22,15,3.70
2013,03,21,22,16,3.70
2013,03,21,22,17,3.70
2013,03,21,22,18,3.70
2013,03,21,22,19,3.70
2013,03,21,22,20,3.70
2013,03,21,22,21,3.70
2013,03,21,22,22,3.70
2013,03,21,22,23,3.70
2013,03,21,22,24,3.70
2013,03,21,22,25,3.70
2013,03,21,22,26,3.70
2013,03,21,22,27,3.70
2013,03,21,22,28,3.70
2013,03,21,22,29,3.70
2013,03,21,22,30,3.60
2013,03,21,22,31,3.60
2013,03,21,22,32,3.60
2013,03,21,22,33,3.60
2013,03,21,22,34,3.60
2013,03,21,22,35,3.60
2013,03,21,22,36,3.60
2013,03,21,22,37,3.60
2013,03,21,22,38,3.60
2013,03,21,22,39,3.60
2013,03,21,22,40,3.60
2013,03,21,22,41,3.60
2013,03,21,22,42,3.60
2013,03,21,22,43,3.60
2013,03,21,22,44,3.60
2013,03,21,22,45,3.70
2013,03,21,22,46,3.70
2013,03,21,22,47,3.70
2013,03,21,22,48,3.70
2013,03,21,22,49,3.70
2013,03,21,22,50,3.60
2013,03,21,22,51,3.60
2013,03,21,22,52,3.60
2013,03,21,22,53,3.60
2013,03,21,22,54,3.60
2013,03,21,22,55,3.60
2013,03,21,22,56,3.60
2013,03,21,22,57,3.60
2013,03,21,22,58,3.60
2013,03,21,22,59,3.60
2013,03,21,23,00,3.60
2013,03,21,23,01,3.60
2013,03,21,23,02,3.60
2013,03,21,23,03,3.60
2013,03,21,23,04,3.50
2013,03,21,23,05,3.50
2013,03,21,23,06,3.50
2013,03,21,23,07,3.50
2013,03,21,23,08,3.50
2013,03,21,23,09,3.40
2013,03,21,23,10,3.40
2013,03,21,23,11,3.40
2013,03,21,23,12,3.40
2013,03,21,23,13,3.40
2013,03,21,23,14,3.40
2013,03,21,23,15,3.40
2013,03,21,23,16,3.40
2013,03,21,23,17,3.50
2013,03,21,23,18,3.50
2013,03,21,23,19,3.50
2013,03,21,23,20,3.50
2013,03,21,23,21,3.60
2013,03,21,23,22,3.70
2013,03,21,23,23,3.70
2013,03,21,23,24,3.70
2013,03,21,23,25,3.80
2013,03,21,23,26,3.80
2013,03,21,23,27,3.80
2013,03,21,23,28,3.80
2013,03,21,23,29,3.80
2013,03,21,23,30,3.80
2013,03,21,23,31,3.80
2013,03,21,23,32,3.80
2013,03,21,23,33,3.80
2013,03,21,23,34,3.80
2013,03,21,23,35,3.80
2013,03,21,23,36,3.70
2013,03,21,23,37,3.70
2013,03,21,23,38,3.70
2013,03,21,23,39,3.70
2013,03,21,23,40,3.70
2013,03,21,23,41,3.70
2013,03,21,23,42,3.70
2013,03,21,23,43,3.70
2013,03,21,23,44,3.70
2013,03,21,23,45,3.60
2013,03,21,23,46,3.60
2013,03,21,23,47,3.60
2013,03,21,23,48,3.60
2013,03,21,23,49,3.60
2013,03,21,23,50,3.50
2013,03,21,23,51,3.50
2013,03,21,23,52,3.50
2013,03,21,23,53,3.50
2013,03,21,23,54,3.50
2013,03,21,23,55,3.40
2013,03,21,23,56,3.40
2013,03,21,23,57,3.40
2013,03,21,23,58,3.40
2013,03,21,23,59,3.50
